Time,TemperatureF,DewpointF,PressureIn,WindDirection,WindDirectionDegrees,WindSpeedMPH,WindSpeedGustMPH,Humidity,HourlyPrecipIn,Conditions,Clouds,dailyrainin,SolarRadiationWatts/m^2,SoftwareType,DateUTC
2013-01-10 00:01:00,24.0,19.9,30.35,SE,140,0.0,1.0,84,0.00,,CLR,0.00,0.00,VWS V14.01,2013-01-10 06:01:00,
2013-01-10 00:06:00,23.9,19.8,30.36,SE,140,1.0,2.0,84,0.00,,CLR,0.00,0.00,VWS V14.01,2013-01-10 06:06:00,
2013-01-10 00:11:00,23.8,19.7,30.36,SE,140,2.0,2.0,84,0.00,,CLR,0.00,0.00,VWS V14.01,2013-01-10 06:11:00,
2013-01-10 00:16:00,23.8,19.7,30.36,SE,140,1.0,3.0,84,0.00,,CLR,0.00,0.00,VWS V14.01,2013-01-10 06:16:00,
2013-01-10 00:21:00,23.9,19.8,30.36,SE,140,3.0,3.0,84,0.00,,CLR,0.00,0.00,VWS V14.01,2013-01-10 06:21:00,
2013-01-10 00:26:00,24.3,20.5,30.37,SE,140,2.0,4.0,85,0.00,,CLR,0.00,0.00,VWS V14.01,2013-01-10 06:26:00,
2013-01-10 00:31:00,24.5,20.4,30.38,SE,140,2.0,4.0,84,0.00,,CLR,0.00,0.00,VWS V14.01,2013-01-10 06:31:00,
2013-01-10 00:36:00,24.6,20.5,30.38,South,172,2.0,4.0,84,0.00,,CLR,0.00,0.00,VWS V14.01,2013-01-10 06:36:00,
2013-01-10 00:41:00,24.9,20.8,30.37,SSE,162,2.0,4.0,84,0.00,,CLR,0.00,0.00,VWS V14.01,2013-01-10 06:41:00,
2013-01-10 00:46:00,24.9,20.8,30.38,South,170,4.0,6.0,84,0.00,,CLR,0.00,0.00,VWS V14.01,2013-01-10 06:46:00,
2013-01-10 00:51:00,24.8,20.7,30.38,South,181,3.0,6.0,84,0.00,,CLR,0.00,0.00,VWS V14.01,2013-01-10 06:51:00,
2013-01-10 00:56:00,25.0,21.1,30.38,South,181,1.0,6.0,85,0.00,,CLR,0.00,0.00,VWS V14.01,2013-01-10 06:56:00,
2013-01-10 01:01:00,25.3,21.4,30.38,South,181,1.0,4.0,85,0.00,,CLR,0.00,0.00,VWS V14.01,2013-01-10 07:01:00,
2013-01-10 01:06:00,25.5,21.4,30.39,South,186,0.0,4.0,84,0.00,,CLR,0.00,0.00,VWS V14.01,2013-01-10 07:06:00,
2013-01-10 01:11:00,25.6,21.5,30.39,South,186,0.0,4.0,84,0.00,,CLR,0.00,0.00,VWS V14.01,2013-01-10 07:11:00,
2013-01-10 01:16:00,25.6,21.5,30.39,South,186,0.0,4.0,84,0.00,,CLR,0.00,0.00,VWS V14.01,2013-01-10 07:16:00,
2013-01-10 01:21:00,25.6,21.5,30.39,South,186,1.0,4.0,84,0.00,,CLR,0.00,0.00,VWS V14.01,2013-01-10 07:21:00,
2013-01-10 01:26:00,25.6,21.5,30.40,South,186,0.0,4.0,84,0.00,,CLR,0.00,0.00,VWS V14.01,2013-01-10 07:26:00,
2013-01-10 01:31:00,25.5,21.4,30.40,South,186,0.0,1.0,84,0.00,,CLR,0.00,0.00,VWS V14.01,2013-01-10 07:31:00,
2013-01-10 01:36:00,25.4,21.2,30.40,South,186,0.0,2.0,84,0.00,,CLR,0.00,0.00,VWS V14.01,2013-01-10 07:36:00,
2013-01-10 01:41:00,25.2,21.0,30.40,South,186,1.0,2.0,84,0.00,,CLR,0.00,0.00,VWS V14.01,2013-01-10 07:41:00,
2013-01-10 01:46:00,25.0,20.9,30.40,South,169,3.0,3.0,84,0.00,,CLR,0.00,0.00,VWS V14.01,2013-01-10 07:46:00,
2013-01-10 01:51:00,25.0,20.9,30.40,SSE,168,2.0,3.0,84,0.00,,CLR,0.00,0.00,VWS V14.01,2013-01-10 07:51:00,
2013-01-10 01:56:00,24.9,20.8,30.40,SE,134,3.0,3.0,84,0.00,,CLR,0.00,0.00,VWS V14.01,2013-01-10 07:56:00,
2013-01-10 02:01:00,25.0,21.1,30.40,SE,134,2.0,4.0,85,0.00,,CLR,0.00,0.00,VWS V14.01,2013-01-10 08:01:00,
2013-01-10 02:06:00,25.0,21.1,30.40,SE,129,2.0,4.0,85,0.00,,CLR,0.00,0.00,VWS V14.01,2013-01-10 08:06:00,
2013-01-10 02:11:00,25.1,21.0,30.39,ESE,117,2.0,4.0,84,0.00,,CLR,0.00,0.00,VWS V14.01,2013-01-10 08:11:00,
2013-01-10 02:16:00,24.9,20.8,30.40,ESE,117,2.0,4.0,84,0.00,,CLR,0.00,0.00,VWS V14.01,2013-01-10 08:16:00,
2013-01-10 02:21:00,24.7,20.8,30.40,ESE,117,1.0,4.0,85,0.00,,CLR,0.00,0.00,VWS V14.01,2013-01-10 08:21:00,
2013-01-10 02:26:00,24.4,20.5,30.40,ESE,117,1.0,4.0,85,0.00,,CLR,0.00,0.00,VWS V14.01,2013-01-10 08:26:00,
2013-01-10 02:31:00,24.4,22.4,30.40,ESE,117,0.0,1.0,92,0.00,,CLR,0.00,0.00,VWS V14.01,2013-01-10 08:31:00,
2013-01-10 02:36:00,24.4,20.5,30.40,ESE,117,0.0,2.0,85,0.00,,CLR,0.00,0.00,VWS V14.01,2013-01-10 08:36:00,
2013-01-10 02:41:00,24.3,20.5,30.39,ESE,117,0.0,2.0,85,0.00,,CLR,0.00,0.00,VWS V14.01,2013-01-10 08:41:00,
2013-01-10 02:46:00,24.1,20.2,30.40,ESE,117,0.0,2.0,85,0.00,,CLR,0.00,0.00,VWS V14.01,2013-01-10 08:46:00,
2013-01-10 02:51:00,24.0,20.1,30.40,ESE,117,1.0,2.0,85,0.00,,CLR,0.00,0.00,VWS V14.01,2013-01-10 08:51:00,
2013-01-10 02:56:00,24.0,20.1,30.39,ESE,117,1.0,2.0,85,0.00,,CLR,0.00,0.00,VWS V14.01,2013-01-10 08:56:00,
2013-01-10 03:01:00,24.1,20.5,30.40,ESE,117,0.0,3.0,86,0.00,,CLR,0.00,0.00,VWS V14.01,2013-01-10 09:01:00,
2013-01-10 03:06:00,24.2,20.4,30.39,ESE,122,1.0,4.0,85,0.00,,CLR,0.00,0.00,VWS V14.01,2013-01-10 09:06:00,
2013-01-10 03:11:00,24.1,20.2,30.39,ESE,122,2.0,4.0,85,0.00,,CLR,0.00,0.00,VWS V14.01,2013-01-10 09:11:00,
2013-01-10 03:16:00,24.1,20.2,30.39,ESE,122,2.0,4.0,85,0.00,,CLR,0.00,0.00,VWS V14.01,2013-01-10 09:16:00,
2013-01-10 03:21:00,24.1,20.5,30.39,ESE,122,1.0,4.0,86,0.00,,CLR,0.00,0.00,VWS V14.01,2013-01-10 09:21:00,
2013-01-10 03:26:00,24.1,20.2,30.39,ESE,117,2.0,4.0,85,0.00,,CLR,0.00,0.00,VWS V14.01,2013-01-10 09:26:00,
2013-01-10 03:31:00,24.2,20.4,30.39,SE,125,3.0,3.0,85,0.00,,CLR,0.00,0.00,VWS V14.01,2013-01-10 09:31:00,
2013-01-10 03:36:00,24.3,20.5,30.39,SE,132,0.0,3.0,85,0.00,,CLR,0.00,0.00,VWS V14.01,2013-01-10 09:36:00,
2013-01-10 03:41:00,24.2,20.4,30.39,SE,132,1.0,3.0,85,0.00,,CLR,0.00,0.00,VWS V14.01,2013-01-10 09:41:00,
2013-01-10 03:46:00,24.1,20.2,30.39,SE,132,3.0,4.0,85,0.00,,CLR,0.00,0.00,VWS V14.01,2013-01-10 09:46:00,
2013-01-10 03:51:00,24.2,20.4,30.39,SE,132,3.0,4.0,85,0.00,,CLR,0.00,0.00,VWS V14.01,2013-01-10 09:51:00,
2013-01-10 03:56:00,24.4,20.5,30.39,SE,134,3.0,5.0,85,0.00,,CLR,0.00,0.00,VWS V14.01,2013-01-10 09:56:00,
2013-01-10 04:01:00,24.6,20.7,30.39,East,98,3.0,4.0,85,0.00,,CLR,0.00,0.00,VWS V14.01,2013-01-10 10:01:00,
2013-01-10 04:06:00,24.8,20.9,30.38,ESE,119,2.0,4.0,85,0.00,,CLR,0.00,0.00,VWS V14.01,2013-01-10 10:06:00,
2013-01-10 04:11:00,25.0,20.9,30.38,ESE,121,2.0,4.0,84,0.00,,CLR,0.00,0.00,VWS V14.01,2013-01-10 10:11:00,
2013-01-10 04:16:00,25.1,21.0,30.38,SE,124,1.0,4.0,84,0.00,,CLR,0.00,0.00,VWS V14.01,2013-01-10 10:16:00,
2013-01-10 04:21:00,25.2,21.0,30.38,SE,124,1.0,4.0,84,0.00,,CLR,0.00,0.00,VWS V14.01,2013-01-10 10:21:00,
2013-01-10 04:26:00,25.2,21.0,30.38,SE,124,1.0,4.0,84,0.00,,CLR,0.00,0.00,VWS V14.01,2013-01-10 10:26:00,
2013-01-10 04:31:00,25.2,21.0,30.37,ESE,104,2.0,3.0,84,0.00,,CLR,0.00,0.00,VWS V14.01,2013-01-10 10:31:00,
2013-01-10 04:37:00,25.1,21.0,30.37,ESE,113,1.0,3.0,84,0.00,,CLR,0.00,0.00,VWS V14.01,2013-01-10 10:37:00,
2013-01-10 04:41:00,25.1,21.0,30.36,ESE,119,2.0,4.0,84,0.00,,CLR,0.00,0.00,VWS V14.01,2013-01-10 10:41:00,
2013-01-10 04:46:00,25.1,21.0,30.37,ESE,119,1.0,4.0,84,0.00,,CLR,0.00,0.00,VWS V14.01,2013-01-10 10:46:00,
2013-01-10 04:52:00,25.2,21.0,30.37,ESE,119,1.0,4.0,84,0.00,,CLR,0.00,0.00,VWS V14.01,2013-01-10 10:52:00,
2013-01-10 04:57:00,25.2,21.0,30.37,ESE,119,0.0,4.0,84,0.00,,CLR,0.00,0.00,VWS V14.01,2013-01-10 10:57:00,
2013-01-10 05:02:00,25.2,21.0,30.37,ESE,119,1.0,2.0,84,0.00,,CLR,0.00,0.00,VWS V14.01,2013-01-10 11:02:00,
2013-01-10 05:07:00,25.2,21.0,30.36,ESE,119,1.0,3.0,84,0.00,,CLR,0.00,0.00,VWS V14.01,2013-01-10 11:07:00,
2013-01-10 05:12:00,25.3,20.9,30.36,ESE,119,1.0,3.0,83,0.00,,CLR,0.00,0.00,VWS V14.01,2013-01-10 11:12:00,
2013-01-10 05:17:00,25.4,21.0,30.36,ESE,119,2.0,3.0,83,0.00,,CLR,0.00,0.00,VWS V14.01,2013-01-10 11:17:00,
2013-01-10 05:22:00,25.3,20.9,30.36,ESE,119,1.0,3.0,83,0.00,,CLR,0.00,0.00,VWS V14.01,2013-01-10 11:22:00,
2013-01-10 05:27:00,25.2,20.8,30.36,ESE,119,2.0,3.0,83,0.00,,CLR,0.00,0.00,VWS V14.01,2013-01-10 11:27:00,
2013-01-10 05:32:00,25.2,20.8,30.36,ESE,119,3.0,3.0,83,0.00,,CLR,0.00,0.00,VWS V14.01,2013-01-10 11:32:00,
2013-01-10 05:37:00,25.2,20.8,30.36,ESE,123,3.0,4.0,83,0.00,,CLR,0.00,0.00,VWS V14.01,2013-01-10 11:37:00,
2013-01-10 05:42:00,25.2,20.8,30.35,SE,142,4.0,4.0,83,0.00,,CLR,0.00,0.00,VWS V14.01,2013-01-10 11:42:00,
2013-01-10 05:47:00,25.2,20.8,30.35,ESE,111,2.0,5.0,83,0.00,,CLR,0.00,0.00,VWS V14.01,2013-01-10 11:47:00,
2013-01-10 05:52:00,25.2,20.8,30.35,East,100,3.0,5.0,83,0.00,,CLR,0.00,0.00,VWS V14.01,2013-01-10 11:52:00,
2013-01-10 05:57:00,25.2,20.8,30.35,SE,124,0.0,5.0,83,0.00,,CLR,0.00,0.00,VWS V14.01,2013-01-10 11:57:00,
2013-01-10 06:02:00,25.2,20.8,30.35,ESE,112,2.0,3.0,83,0.00,,CLR,0.00,0.00,VWS V14.01,2013-01-10 12:02:00,
2013-01-10 06:07:00,25.2,20.8,30.35,SE,126,2.0,5.0,83,0.00,,CLR,0.00,0.00,VWS V14.01,2013-01-10 12:07:00,
2013-01-10 06:12:00,25.2,20.8,30.35,SE,125,1.0,5.0,83,0.00,,CLR,0.00,0.00,VWS V14.01,2013-01-10 12:12:00,
2013-01-10 06:17:00,25.2,20.8,30.35,ESE,112,1.0,5.0,83,0.00,,CLR,0.00,0.00,VWS V14.01,2013-01-10 12:17:00,
2013-01-10 06:22:00,25.2,20.8,30.34,ESE,123,2.0,5.0,83,0.00,,CLR,0.00,0.00,VWS V14.01,2013-01-10 12:22:00,
2013-01-10 06:27:00,25.3,20.9,30.34,ESE,115,1.0,5.0,83,0.00,,CLR,0.00,0.00,VWS V14.01,2013-01-10 12:27:00,
2013-01-10 06:32:00,25.3,20.9,30.34,ESE,116,2.0,3.0,83,0.00,,CLR,0.00,0.00,VWS V14.01,2013-01-10 12:32:00,
2013-01-10 06:37:00,25.4,21.0,30.34,ESE,121,2.0,3.0,83,0.00,,CLR,0.00,0.00,VWS V14.01,2013-01-10 12:37:00,
2013-01-10 06:42:00,25.4,21.0,30.34,SE,133,1.0,4.0,83,0.00,,CLR,0.00,0.00,VWS V14.01,2013-01-10 12:42:00,
2013-01-10 06:47:00,25.4,21.0,30.34,SE,129,1.0,4.0,83,0.00,,CLR,0.00,0.00,VWS V14.01,2013-01-10 12:47:00,
2013-01-10 06:52:00,25.3,20.9,30.34,SE,129,2.0,4.0,83,0.00,,CLR,0.00,0.00,VWS V14.01,2013-01-10 12:52:00,
2013-01-10 06:57:00,25.4,21.0,30.34,SE,124,1.0,4.0,83,0.00,,CLR,0.00,0.00,VWS V14.01,2013-01-10 12:57:00,
2013-01-10 07:02:00,25.4,21.0,30.34,SE,134,1.0,4.0,83,0.00,,CLR,0.00,0.00,VWS V14.01,2013-01-10 13:02:00,
2013-01-10 07:07:00,25.4,21.0,30.34,ESE,122,1.0,4.0,83,0.00,,CLR,0.00,0.00,VWS V14.01,2013-01-10 13:07:00,
2013-01-10 07:12:00,25.4,21.0,30.34,ESE,121,3.0,4.0,83,0.00,,CLR,0.00,0.00,VWS V14.01,2013-01-10 13:12:00,
2013-01-10 07:17:00,25.4,21.0,30.34,SE,130,1.0,4.0,83,0.00,,CLR,0.00,0.00,VWS V14.01,2013-01-10 13:17:00,
2013-01-10 07:22:00,25.3,20.9,30.34,SE,143,1.0,5.0,83,0.00,,CLR,0.00,0.00,VWS V14.01,2013-01-10 13:22:00,
2013-01-10 07:27:00,25.4,21.0,30.34,ESE,113,2.0,5.0,83,0.00,,CLR,0.00,0.00,VWS V14.01,2013-01-10 13:27:00,
2013-01-10 07:32:00,25.4,21.0,30.34,ESE,121,3.0,4.0,83,0.00,,CLR,0.00,0.00,VWS V14.01,2013-01-10 13:32:00,
2013-01-10 07:37:00,25.3,20.9,30.34,ESE,120,3.0,5.0,83,0.00,,CLR,0.00,0.00,VWS V14.01,2013-01-10 13:37:00,
2013-01-10 07:42:00,25.3,20.9,30.34,SE,126,3.0,5.0,83,0.00,,CLR,0.00,0.00,VWS V14.01,2013-01-10 13:42:00,
2013-01-10 07:47:00,25.4,21.0,30.34,SE,126,2.0,5.0,83,0.00,,CLR,0.00,0.00,VWS V14.01,2013-01-10 13:47:00,
2013-01-10 07:52:00,25.4,21.0,30.34,SE,136,2.0,5.0,83,0.00,,CLR,0.00,0.00,VWS V14.01,2013-01-10 13:52:00,
2013-01-10 07:57:00,25.4,21.0,30.34,SSE,157,3.0,5.0,83,0.00,,CLR,0.00,5.00,VWS V14.01,2013-01-10 13:57:00,
2013-01-10 08:02:00,25.4,20.7,30.34,SE,126,2.0,3.0,82,0.00,,CLR,0.00,7.00,VWS V14.01,2013-01-10 14:02:00,
2013-01-10 08:07:00,25.4,20.7,30.34,SE,133,2.0,5.0,82,0.00,,CLR,0.00,9.00,VWS V14.01,2013-01-10 14:07:00,
2013-01-10 08:12:00,25.5,20.8,30.34,SE,130,4.0,5.0,82,0.00,,CLR,0.00,11.00,VWS V14.01,2013-01-10 14:12:00,
2013-01-10 08:17:00,25.6,20.9,30.34,SE,138,3.0,7.0,82,0.00,,CLR,0.00,12.00,VWS V14.01,2013-01-10 14:17:00,
2013-01-10 08:22:00,25.6,20.9,30.34,SE,134,2.0,7.0,82,0.00,,CLR,0.00,19.00,VWS V14.01,2013-01-10 14:22:00,
2013-01-10 08:27:00,25.7,21.0,30.34,SE,143,4.0,7.0,82,0.00,,CLR,0.00,18.00,VWS V14.01,2013-01-10 14:27:00,
2013-01-10 08:32:00,25.8,21.1,30.34,SE,130,1.0,3.0,82,0.00,,CLR,0.00,33.00,VWS V14.01,2013-01-10 14:32:00,
2013-01-10 08:37:00,26.0,21.3,30.34,ESE,114,1.0,4.0,82,0.00,,CLR,0.00,33.00,VWS V14.01,2013-01-10 14:37:00,
2013-01-10 08:42:00,26.2,21.2,30.34,ESE,119,2.0,4.0,81,0.00,,CLR,0.00,49.00,VWS V14.01,2013-01-10 14:42:00,
2013-01-10 08:47:00,26.6,21.6,30.34,ESE,116,1.0,4.0,81,0.00,,CLR,0.00,58.00,VWS V14.01,2013-01-10 14:47:00,
2013-01-10 08:52:00,26.8,21.5,30.34,SE,140,2.0,4.0,80,0.00,,CLR,0.00,69.00,VWS V14.01,2013-01-10 14:52:00,
2013-01-10 08:57:00,27.0,21.7,30.33,SE,132,2.0,4.0,80,0.00,,CLR,0.00,69.00,VWS V14.01,2013-01-10 14:57:00,
2013-01-10 09:02:00,27.3,21.7,30.33,ESE,123,1.0,3.0,79,0.00,,CLR,0.00,67.00,VWS V14.01,2013-01-10 15:02:00,
2013-01-10 09:07:00,27.6,22.0,30.33,ESE,118,2.0,3.0,79,0.00,,CLR,0.00,35.00,VWS V14.01,2013-01-10 15:07:00,
2013-01-10 09:12:00,27.9,22.2,30.33,ESE,117,2.0,4.0,79,0.00,,CLR,0.00,42.00,VWS V14.01,2013-01-10 15:12:00,
2013-01-10 09:17:00,28.2,22.2,30.33,ESE,122,1.0,5.0,78,0.00,,CLR,0.00,40.00,VWS V14.01,2013-01-10 15:17:00,
2013-01-10 09:22:00,28.5,22.5,30.33,ESE,122,1.0,5.0,78,0.00,,CLR,0.00,114.00,VWS V14.01,2013-01-10 15:22:00,
2013-01-10 09:27:00,28.9,22.6,30.33,SE,126,3.0,5.0,77,0.00,,CLR,0.00,42.00,VWS V14.01,2013-01-10 15:27:00,
2013-01-10 09:32:00,29.3,22.7,30.33,SE,126,2.0,4.0,76,0.00,,CLR,0.00,111.00,VWS V14.01,2013-01-10 15:32:00,
2013-01-10 09:37:00,29.9,23.0,30.33,ESE,122,0.0,4.0,75,0.00,,CLR,0.00,90.00,VWS V14.01,2013-01-10 15:37:00,
2013-01-10 09:42:00,30.3,23.0,30.32,SE,130,2.0,4.0,74,0.00,,CLR,0.00,81.00,VWS V14.01,2013-01-10 15:42:00,
2013-01-10 09:47:00,30.7,23.4,30.32,SE,130,1.0,4.0,74,0.00,,CLR,0.00,160.00,VWS V14.01,2013-01-10 15:47:00,
2013-01-10 09:52:00,31.1,23.5,30.32,ESE,113,0.0,4.0,73,0.00,,CLR,0.00,77.00,VWS V14.01,2013-01-10 15:52:00,
2013-01-10 09:57:00,31.4,23.4,30.32,SE,134,1.0,4.0,72,0.00,,CLR,0.00,128.00,VWS V14.01,2013-01-10 15:57:00,
2013-01-10 10:02:00,31.5,23.5,30.32,ESE,103,1.0,1.0,72,0.00,,CLR,0.00,77.00,VWS V14.01,2013-01-10 16:02:00,
2013-01-10 10:07:00,31.7,23.4,30.32,ESE,117,2.0,4.0,71,0.00,,CLR,0.00,95.00,VWS V14.01,2013-01-10 16:07:00,
2013-01-10 10:12:00,32.0,23.0,30.31,SE,128,0.0,5.0,69,0.00,,CLR,0.00,74.00,VWS V14.01,2013-01-10 16:12:00,
2013-01-10 10:17:00,32.2,23.2,30.31,ESE,115,0.0,5.0,69,0.00,,CLR,0.00,98.00,VWS V14.01,2013-01-10 16:17:00,
2013-01-10 10:23:00,32.6,22.9,30.31,SSE,167,3.0,5.0,67,0.00,,CLR,0.00,83.00,VWS V14.01,2013-01-10 16:23:00,
2013-01-10 10:28:00,32.8,22.7,30.31,ESE,108,2.0,8.0,66,0.00,,CLR,0.00,93.00,VWS V14.01,2013-01-10 16:28:00,
2013-01-10 10:33:00,33.2,22.7,30.31,ESE,116,5.0,6.0,65,0.00,,CLR,0.00,127.00,VWS V14.01,2013-01-10 16:33:00,
2013-01-10 10:38:00,33.5,23.0,30.31,SSE,161,1.0,6.0,65,0.00,,CLR,0.00,134.00,VWS V14.01,2013-01-10 16:38:00,
2013-01-10 10:43:00,33.9,23.0,30.31,SE,127,2.0,7.0,64,0.00,,CLR,0.00,134.00,VWS V14.01,2013-01-10 16:43:00,
2013-01-10 10:48:00,34.1,22.5,30.30,ESE,119,5.0,7.0,62,0.00,,CLR,0.00,176.00,VWS V14.01,2013-01-10 16:48:00,
2013-01-10 10:53:00,34.5,22.8,30.29,ESE,103,2.0,7.0,62,0.00,,CLR,0.00,207.00,VWS V14.01,2013-01-10 16:53:00,
2013-01-10 10:58:00,34.8,22.7,30.29,SSE,151,4.0,7.0,61,0.00,,CLR,0.00,151.00,VWS V14.01,2013-01-10 16:58:00,
2013-01-10 11:03:00,35.1,23.0,30.29,ESE,123,3.0,6.0,61,0.00,,CLR,0.00,148.00,VWS V14.01,2013-01-10 17:03:00,
2013-01-10 11:08:00,35.5,23.0,30.28,ESE,119,2.0,6.0,60,0.00,,CLR,0.00,179.00,VWS V14.01,2013-01-10 17:08:00,
2013-01-10 11:13:00,35.8,22.9,30.28,SE,127,2.0,6.0,59,0.00,,CLR,0.00,199.00,VWS V14.01,2013-01-10 17:13:00,
2013-01-10 11:18:00,36.3,23.8,30.27,ESE,116,4.0,7.0,60,0.00,,CLR,0.00,158.00,VWS V14.01,2013-01-10 17:18:00,
2013-01-10 11:23:00,36.5,24.7,30.27,ESE,111,5.0,7.0,62,0.00,,CLR,0.00,199.00,VWS V14.01,2013-01-10 17:23:00,
2013-01-10 11:28:00,36.8,23.4,30.26,SSE,147,5.0,7.0,58,0.00,,CLR,0.00,185.00,VWS V14.01,2013-01-10 17:28:00,
2013-01-10 11:33:00,36.9,23.1,30.25,SSE,161,3.0,5.0,57,0.00,,CLR,0.00,193.00,VWS V14.01,2013-01-10 17:33:00,
2013-01-10 11:38:00,37.1,22.9,30.25,SSW,213,6.0,8.0,56,0.00,,CLR,0.00,199.00,VWS V14.01,2013-01-10 17:38:00,
2013-01-10 11:43:00,37.5,22.8,30.25,SE,145,6.0,9.0,55,0.00,,CLR,0.00,248.00,VWS V14.01,2013-01-10 17:43:00,
2013-01-10 11:48:00,37.8,22.7,30.24,SSE,150,2.0,9.0,54,0.00,,CLR,0.00,357.00,VWS V14.01,2013-01-10 17:48:00,
2013-01-10 11:53:00,38.4,22.8,30.24,SE,128,2.0,9.0,53,0.00,,CLR,0.00,397.00,VWS V14.01,2013-01-10 17:53:00,
2013-01-10 11:58:00,38.8,23.6,30.24,South,172,2.0,9.0,54,0.00,,CLR,0.00,427.00,VWS V14.01,2013-01-10 17:58:00,
2013-01-10 12:03:00,39.3,23.2,30.23,ESE,109,7.0,8.0,52,0.00,,CLR,0.00,374.00,VWS V14.01,2013-01-10 18:03:00,
2013-01-10 12:08:00,39.1,22.5,30.22,South,177,3.0,9.0,51,0.00,,CLR,0.00,352.00,VWS V14.01,2013-01-10 18:08:00,
2013-01-10 12:13:00,39.1,22.5,30.22,SE,141,6.0,9.0,51,0.00,,CLR,0.00,345.00,VWS V14.01,2013-01-10 18:13:00,
2013-01-10 12:18:00,39.3,22.7,30.22,SSE,157,3.0,9.0,51,0.00,,CLR,0.00,352.00,VWS V14.01,2013-01-10 18:18:00,
2013-01-10 12:23:00,39.7,23.1,30.21,SE,132,2.0,9.0,51,0.00,,CLR,0.00,350.00,VWS V14.01,2013-01-10 18:23:00,
2013-01-10 12:28:00,39.9,22.3,30.20,SE,126,2.0,9.0,49,0.00,,CLR,0.00,338.00,VWS V14.01,2013-01-10 18:28:00,
2013-01-10 12:33:00,40.1,22.5,30.20,ESE,123,2.0,7.0,49,0.00,,CLR,0.00,346.00,VWS V14.01,2013-01-10 18:33:00,
2013-01-10 12:38:00,40.4,22.3,30.20,SE,132,0.0,7.0,48,0.00,,CLR,0.00,341.00,VWS V14.01,2013-01-10 18:38:00,
2013-01-10 12:43:00,40.7,21.5,30.19,ESE,121,2.0,7.0,46,0.00,,CLR,0.00,327.00,VWS V14.01,2013-01-10 18:43:00,
2013-01-10 12:48:00,40.7,21.5,30.19,SE,133,3.0,8.0,46,0.00,,CLR,0.00,336.00,VWS V14.01,2013-01-10 18:48:00,
2013-01-10 12:53:00,40.7,22.1,30.18,SE,126,1.0,8.0,47,0.00,,CLR,0.00,341.00,VWS V14.01,2013-01-10 18:53:00,
2013-01-10 12:58:00,40.7,22.1,30.18,SE,130,3.0,8.0,47,0.00,,CLR,0.00,336.00,VWS V14.01,2013-01-10 18:58:00,
2013-01-10 13:03:00,40.8,21.1,30.18,ESE,115,3.0,9.0,45,0.00,,CLR,0.00,309.00,VWS V14.01,2013-01-10 19:03:00,
2013-01-10 13:08:00,40.9,21.2,30.18,SE,124,4.0,9.0,45,0.00,,CLR,0.00,281.00,VWS V14.01,2013-01-10 19:08:00,
2013-01-10 13:13:00,40.9,22.7,30.17,SE,129,5.0,9.0,48,0.00,,CLR,0.00,264.00,VWS V14.01,2013-01-10 19:13:00,
2013-01-10 13:18:00,40.9,21.7,30.16,East,97,2.0,9.0,46,0.00,,CLR,0.00,257.00,VWS V14.01,2013-01-10 19:18:00,
2013-01-10 13:23:00,40.9,20.7,30.15,ESE,109,5.0,9.0,44,0.00,,CLR,0.00,262.00,VWS V14.01,2013-01-10 19:23:00,
2013-01-10 13:28:00,41.0,20.2,30.15,ESE,120,2.0,9.0,43,0.00,,CLR,0.00,246.00,VWS V14.01,2013-01-10 19:28:00,
2013-01-10 13:33:00,41.3,21.0,30.15,SE,146,4.0,8.0,44,0.00,,CLR,0.00,244.00,VWS V14.01,2013-01-10 19:33:00,
2013-01-10 13:38:00,41.4,20.0,30.14,SE,130,3.0,8.0,42,0.00,,CLR,0.00,223.00,VWS V14.01,2013-01-10 19:38:00,
2013-01-10 13:43:00,41.6,20.8,30.13,East,96,2.0,8.0,43,0.00,,CLR,0.00,211.00,VWS V14.01,2013-01-10 19:43:00,
2013-01-10 13:48:00,41.7,21.4,30.13,ESE,117,2.0,8.0,44,0.00,,CLR,0.00,207.00,VWS V14.01,2013-01-10 19:48:00,
2013-01-10 13:53:00,41.7,21.9,30.13,ESE,106,2.0,8.0,45,0.00,,CLR,0.00,195.00,VWS V14.01,2013-01-10 19:53:00,
2013-01-10 13:58:00,41.6,22.9,30.13,ENE,74,1.0,8.0,47,0.00,,CLR,0.00,195.00,VWS V14.01,2013-01-10 19:58:00,
2013-01-10 14:03:00,41.5,23.3,30.13,East,99,0.0,3.0,48,0.00,,CLR,0.00,192.00,VWS V14.01,2013-01-10 20:03:00,
2013-01-10 14:08:00,41.4,23.7,30.13,ENE,78,0.0,3.0,49,0.00,,CLR,0.00,185.00,VWS V14.01,2013-01-10 20:08:00,
2013-01-10 14:13:00,41.1,23.9,30.14,ESE,107,1.0,7.0,50,0.00,,CLR,0.00,174.00,VWS V14.01,2013-01-10 20:13:00,
2013-01-10 14:18:00,40.8,23.1,30.14,ESE,117,2.0,7.0,49,0.00,,CLR,0.00,172.00,VWS V14.01,2013-01-10 20:18:00,
2013-01-10 14:23:00,40.6,23.0,30.13,ESE,112,1.0,7.0,49,0.00,,CLR,0.00,162.00,VWS V14.01,2013-01-10 20:23:00,
2013-01-10 14:28:00,40.5,23.8,30.13,ESE,102,1.0,7.0,51,0.00,,CLR,0.00,155.00,VWS V14.01,2013-01-10 20:28:00,
2013-01-10 14:33:00,40.2,24.0,30.13,ESE,111,1.0,4.0,52,0.00,,CLR,0.00,146.00,VWS V14.01,2013-01-10 20:33:00,
2013-01-10 14:38:00,39.9,24.2,30.13,ESE,109,1.0,5.0,53,0.00,,CLR,0.00,137.00,VWS V14.01,2013-01-10 20:38:00,
2013-01-10 14:43:00,39.6,23.9,30.13,ESE,110,4.0,7.0,53,0.00,,CLR,0.00,125.00,VWS V14.01,2013-01-10 20:43:00,
2013-01-10 14:48:00,39.4,24.6,30.13,SE,126,0.0,7.0,55,0.00,,CLR,0.00,121.00,VWS V14.01,2013-01-10 20:48:00,
2013-01-10 14:53:00,39.2,24.0,30.12,SE,126,1.0,7.0,54,0.00,,CLR,0.00,113.00,VWS V14.01,2013-01-10 20:53:00,
2013-01-10 14:58:00,39.0,24.2,30.12,East,99,0.0,7.0,55,0.00,,CLR,0.00,104.00,VWS V14.01,2013-01-10 20:58:00,
2013-01-10 15:03:00,38.8,24.0,30.12,East,100,0.0,4.0,55,0.00,,CLR,0.00,95.00,VWS V14.01,2013-01-10 21:03:00,
2013-01-10 15:08:00,38.6,23.8,30.12,East,96,0.0,5.0,55,0.00,,CLR,0.00,90.00,VWS V14.01,2013-01-10 21:08:00,
2013-01-10 15:13:00,38.4,24.1,30.12,NE,42,2.0,7.0,56,0.00,,CLR,0.00,84.00,VWS V14.01,2013-01-10 21:13:00,
2013-01-10 15:18:00,38.2,24.3,30.11,East,85,1.0,7.0,57,0.00,,CLR,0.00,79.00,VWS V14.01,2013-01-10 21:18:00,
2013-01-10 15:23:00,37.9,24.0,30.11,ENE,78,1.0,7.0,57,0.00,,CLR,0.00,74.00,VWS V14.01,2013-01-10 21:23:00,
2013-01-10 15:28:00,37.8,24.0,30.10,ENE,78,3.0,7.0,57,0.00,,CLR,0.00,67.00,VWS V14.01,2013-01-10 21:28:00,
2013-01-10 15:33:00,37.7,23.9,30.10,East,88,1.0,2.0,57,0.00,,CLR,0.00,56.00,VWS V14.01,2013-01-10 21:33:00,
2013-01-10 15:38:00,37.5,23.7,30.10,East,82,0.0,3.0,57,0.00,,CLR,0.00,51.00,VWS V14.01,2013-01-10 21:38:00,
2013-01-10 15:43:00,37.3,23.5,30.10,ESE,103,3.0,3.0,57,0.00,,CLR,0.00,46.00,VWS V14.01,2013-01-10 21:43:00,
2013-01-10 15:49:00,37.1,23.7,30.10,ENE,64,2.0,3.0,58,0.00,,CLR,0.00,39.00,VWS V14.01,2013-01-10 21:49:00,
2013-01-10 15:54:00,37.0,24.0,30.09,East,79,2.0,3.0,59,0.00,,CLR,0.00,30.00,VWS V14.01,2013-01-10 21:54:00,
2013-01-10 15:59:00,36.9,23.9,30.09,ENE,76,2.0,3.0,59,0.00,,CLR,0.00,25.00,VWS V14.01,2013-01-10 21:59:00,
2013-01-10 16:04:00,36.8,24.2,30.09,ENE,76,1.0,2.0,60,0.00,,OVC080,0.00,21.00,VWS V14.01,2013-01-10 22:04:00,
2013-01-10 16:09:00,36.8,24.2,30.09,East,86,2.0,3.0,60,0.00,,OVC080,0.00,18.00,VWS V14.01,2013-01-10 22:09:00,
2013-01-10 16:14:00,36.7,24.1,30.08,East,95,3.0,7.0,60,0.00,,OVC080,0.00,14.00,VWS V14.01,2013-01-10 22:14:00,
2013-01-10 16:19:00,36.6,23.6,30.08,ESE,107,3.0,7.0,59,0.00,,OVC080,0.00,12.00,VWS V14.01,2013-01-10 22:19:00,
2013-01-10 16:24:00,36.6,24.0,30.08,East,79,2.0,7.0,60,0.00,,OVC080,0.00,7.00,VWS V14.01,2013-01-10 22:24:00,
2013-01-10 16:29:00,36.6,24.0,30.08,East,94,1.0,7.0,60,0.00,,OVC080,0.00,5.00,VWS V14.01,2013-01-10 22:29:00,
2013-01-10 16:34:00,36.6,23.6,30.08,East,95,2.0,5.0,59,0.00,,OVC080,0.00,0.00,VWS V14.01,2013-01-10 22:34:00,
2013-01-10 16:39:00,36.6,24.0,30.07,East,83,1.0,5.0,60,0.00,,OVC080,0.00,0.00,VWS V14.01,2013-01-10 22:39:00,
2013-01-10 16:44:00,36.6,23.6,30.07,ENE,69,1.0,5.0,59,0.00,,OVC080,0.00,0.00,VWS V14.01,2013-01-10 22:44:00,
2013-01-10 16:49:00,36.6,24.0,30.06,ENE,73,0.0,5.0,60,0.00,,OVC080,0.00,0.00,VWS V14.01,2013-01-10 22:49:00,
2013-01-10 16:54:00,36.5,24.3,30.06,ENE,71,2.0,5.0,61,0.00,,OVC080,0.00,0.00,VWS V14.01,2013-01-10 22:54:00,
2013-01-10 16:59:00,36.4,24.2,30.06,ENE,76,0.0,5.0,61,0.00,,OVC080,0.00,0.00,VWS V14.01,2013-01-10 22:59:00,
2013-01-10 17:04:00,36.3,24.5,30.05,East,80,3.0,5.0,62,0.00,,OVC100,0.00,0.00,VWS V14.01,2013-01-10 23:04:00,
2013-01-10 17:09:00,36.2,24.5,30.05,East,84,1.0,5.0,62,0.00,,OVC100,0.00,0.00,VWS V14.01,2013-01-10 23:09:00,
2013-01-10 17:14:00,36.1,24.7,30.05,East,83,2.0,5.0,63,0.00,,OVC100,0.00,0.00,VWS V14.01,2013-01-10 23:14:00,
2013-01-10 17:19:00,36.1,24.7,30.05,East,79,0.0,5.0,63,0.00,,OVC100,0.00,0.00,VWS V14.01,2013-01-10 23:19:00,
2013-01-10 17:24:00,36.1,24.7,30.04,East,94,2.0,7.0,63,0.00,,OVC100,0.00,0.00,VWS V14.01,2013-01-10 23:24:00,
2013-01-10 17:29:00,36.1,24.7,30.04,East,81,5.0,7.0,63,0.00,,OVC100,0.00,0.00,VWS V14.01,2013-01-10 23:29:00,
2013-01-10 17:34:00,36.1,24.7,30.04,ENE,74,2.0,5.0,63,0.00,,OVC100,0.00,0.00,VWS V14.01,2013-01-10 23:34:00,
2013-01-10 17:39:00,36.1,24.7,30.03,East,80,2.0,5.0,63,0.00,,OVC100,0.00,0.00,VWS V14.01,2013-01-10 23:39:00,
2013-01-10 17:44:00,36.1,24.7,30.02,East,88,3.0,5.0,63,0.00,,OVC100,0.00,0.00,VWS V14.01,2013-01-10 23:44:00,
2013-01-10 17:49:00,36.1,25.1,30.02,East,85,2.0,5.0,64,0.00,,OVC100,0.00,0.00,VWS V14.01,2013-01-10 23:49:00,
2013-01-10 17:54:00,36.0,25.4,30.01,East,83,0.0,5.0,65,0.00,,OVC100,0.00,0.00,VWS V14.01,2013-01-10 23:54:00,
2013-01-10 17:59:00,35.9,25.3,30.01,ENE,65,2.0,3.0,65,0.00,,OVC065,0.00,0.00,VWS V14.01,2013-01-10 23:59:00,
2013-01-10 18:04:00,35.9,25.3,30.01,ENE,75,2.0,7.0,65,0.00,,OVC065,0.00,0.00,VWS V14.01,2013-01-11 00:04:00,
2013-01-10 18:09:00,35.9,25.3,30.01,East,88,2.0,7.0,65,0.00,,OVC065,0.00,0.00,VWS V14.01,2013-01-11 00:09:00,
2013-01-10 18:14:00,35.9,25.3,30.00,ESE,107,2.0,8.0,65,0.00,,OVC065,0.00,0.00,VWS V14.01,2013-01-11 00:14:00,
2013-01-10 18:19:00,35.8,25.9,30.00,ENE,76,2.0,8.0,67,0.00,,OVC065,0.00,0.00,VWS V14.01,2013-01-11 00:19:00,
2013-01-10 18:24:00,35.6,26.8,30.00,ESE,105,2.0,8.0,70,0.00,,OVC065,0.00,0.00,VWS V14.01,2013-01-11 00:24:00,
2013-01-10 18:29:00,35.3,27.2,30.00,ESE,120,1.0,3.0,72,0.00,,OVC065,0.00,0.00,VWS V14.01,2013-01-11 00:29:00,
2013-01-10 18:34:00,35.1,27.7,30.00,East,100,1.0,5.0,74,0.00,,OVC065,0.00,0.00,VWS V14.01,2013-01-11 00:34:00,
2013-01-10 18:39:00,34.7,27.9,29.99,ESE,117,2.0,5.0,76,0.00,,OVC065,0.00,0.00,VWS V14.01,2013-01-11 00:39:00,
2013-01-10 18:45:00,34.5,28.4,29.99,East,87,1.0,5.0,78,0.00,,OVC065,0.00,0.00,VWS V14.01,2013-01-11 00:45:00,
2013-01-10 18:50:00,34.3,28.8,29.98,East,84,1.0,5.0,80,0.00,,OVC065,0.00,0.00,VWS V14.01,2013-01-11 00:50:00,
2013-01-10 18:55:00,34.2,28.7,29.98,ESE,116,3.0,5.0,80,0.00,,OVC065,0.00,0.00,VWS V14.01,2013-01-11 00:55:00,
2013-01-10 19:00:00,34.1,29.2,29.98,East,94,0.0,3.0,82,0.00,,-RA,0.00,0.00,VWS V14.01,2013-01-11 01:00:00,
2013-01-10 19:05:00,34.1,29.2,29.97,ESE,121,2.0,6.0,82,0.00,,-RA,0.00,0.00,VWS V14.01,2013-01-11 01:05:00,
2013-01-10 19:10:00,34.0,29.4,29.97,East,94,3.0,7.0,83,0.00,,-RA,0.00,0.00,VWS V14.01,2013-01-11 01:10:00,
2013-01-10 19:15:00,34.0,29.7,29.96,ESE,119,3.0,7.0,84,0.00,,-RA,0.00,0.00,VWS V14.01,2013-01-11 01:15:00,
2013-01-10 19:20:00,33.9,29.9,29.96,ESE,105,2.0,7.0,85,0.00,,RA,0.00,0.00,VWS V14.01,2013-01-11 01:20:00,
2013-01-10 19:25:00,33.9,30.2,29.95,East,88,2.0,7.0,86,0.00,,RA,0.00,0.00,VWS V14.01,2013-01-11 01:25:00,
2013-01-10 19:30:00,33.9,30.5,29.94,East,101,1.0,3.0,87,0.00,,RA,0.00,0.00,VWS V14.01,2013-01-11 01:30:00,
2013-01-10 19:35:00,33.9,30.5,29.93,East,89,3.0,3.0,87,0.00,,RA,0.00,0.00,VWS V14.01,2013-01-11 01:35:00,
2013-01-10 19:40:00,34.0,30.5,29.93,East,83,3.0,7.0,87,0.00,,RA,0.00,0.00,VWS V14.01,2013-01-11 01:40:00,
2013-01-10 19:45:00,34.0,30.8,29.93,ESE,119,2.0,7.0,88,0.00,,RA,0.00,0.00,VWS V14.01,2013-01-11 01:45:00,
2013-01-10 19:50:00,34.0,30.8,29.93,NE,37,2.0,7.0,88,0.00,,RA,0.00,0.00,VWS V14.01,2013-01-11 01:50:00,
2013-01-10 19:55:00,34.0,30.8,29.92,East,92,3.0,7.0,88,0.00,,RA,0.00,0.00,VWS V14.01,2013-01-11 01:55:00,
2013-01-10 20:00:00,33.9,31.0,29.91,SE,141,5.0,5.0,89,0.00,,RA,0.00,0.00,VWS V14.01,2013-01-11 02:00:00,
2013-01-10 20:05:00,33.9,31.0,29.91,ESE,117,1.0,5.0,89,0.00,,RA,0.00,0.00,VWS V14.01,2013-01-11 02:05:00,
2013-01-10 20:10:00,33.9,31.0,29.91,SE,130,2.0,5.0,89,0.00,,RA,0.00,0.00,VWS V14.01,2013-01-11 02:10:00,
2013-01-10 20:15:00,33.9,31.0,29.92,ESE,113,4.0,5.0,89,0.00,,RA,0.00,0.00,VWS V14.01,2013-01-11 02:15:00,
2013-01-10 20:20:00,34.0,31.1,29.92,ESE,107,2.0,5.0,89,0.00,,RA,0.00,0.00,VWS V14.01,2013-01-11 02:20:00,
2013-01-10 20:25:00,34.0,31.1,29.89,ESE,109,2.0,7.0,89,0.00,,RA,0.00,0.00,VWS V14.01,2013-01-11 02:25:00,
2013-01-10 20:30:00,33.9,31.0,29.89,ESE,117,2.0,3.0,89,0.00,,RA,0.00,0.00,VWS V14.01,2013-01-11 02:30:00,
2013-01-10 20:35:00,34.0,31.1,29.89,ESE,117,0.0,4.0,89,0.00,,RA,0.00,0.00,VWS V14.01,2013-01-11 02:35:00,
2013-01-10 20:40:00,34.1,31.2,29.89,SE,130,3.0,7.0,89,0.00,,RA,0.00,0.00,VWS V14.01,2013-01-11 02:40:00,
2013-01-10 20:45:00,34.1,31.2,29.88,SE,128,1.0,7.0,89,0.00,,RA,0.00,0.00,VWS V14.01,2013-01-11 02:45:00,
2013-01-10 20:51:00,34.2,31.3,29.88,ESE,111,2.0,7.0,89,0.00,,RA,0.00,0.00,VWS V14.01,2013-01-11 02:51:00,
2013-01-10 20:56:00,34.2,31.3,29.88,SE,129,1.0,11.0,89,0.00,,RA,0.00,0.00,VWS V14.01,2013-01-11 02:56:00,
2013-01-10 21:01:00,34.2,31.3,29.87,ESE,112,3.0,4.0,89,0.00,,-RA,0.00,0.00,VWS V14.01,2013-01-11 03:01:00,
2013-01-10 21:06:00,34.3,31.7,29.87,ESE,109,3.0,7.0,90,0.00,,-RA,0.00,0.00,VWS V14.01,2013-01-11 03:06:00,
2013-01-10 21:11:00,34.4,31.5,29.86,East,101,2.0,7.0,89,0.00,,-RA,0.00,0.00,VWS V14.01,2013-01-11 03:11:00,
2013-01-10 21:16:00,34.5,31.6,29.86,SE,126,4.0,7.0,89,0.00,,-RA,0.00,0.00,VWS V14.01,2013-01-11 03:16:00,
2013-01-10 21:21:00,34.6,31.7,29.86,ESE,113,2.0,9.0,89,0.00,,-RA,0.00,0.00,VWS V14.01,2013-01-11 03:21:00,
2013-01-10 21:26:00,34.8,31.9,29.86,ESE,117,4.0,9.0,89,0.00,,-RA,0.00,0.00,VWS V14.01,2013-01-11 03:26:00,
2013-01-10 21:31:00,34.9,32.0,29.85,SSE,157,5.0,5.0,89,0.00,,-RA,0.00,0.00,VWS V14.01,2013-01-11 03:31:00,
2013-01-10 21:36:00,35.0,32.1,29.84,ESE,108,3.0,10.0,89,0.00,,-RA,0.00,0.00,VWS V14.01,2013-01-11 03:36:00,
2013-01-10 21:41:00,35.1,32.2,29.85,ESE,117,4.0,10.0,89,0.00,,-RA,0.00,0.00,VWS V14.01,2013-01-11 03:41:00,
2013-01-10 21:46:00,35.2,32.3,29.84,ESE,113,7.0,10.0,89,0.00,,-RA,0.00,0.00,VWS V14.01,2013-01-11 03:46:00,
2013-01-10 21:51:00,35.3,32.4,29.85,SE,142,5.0,10.0,89,0.00,,-RA,0.00,0.00,VWS V14.01,2013-01-11 03:51:00,
2013-01-10 21:56:00,35.3,32.4,29.85,SE,134,5.0,10.0,89,0.00,,-RA,0.00,0.00,VWS V14.01,2013-01-11 03:56:00,
2013-01-10 22:01:00,35.3,32.4,29.85,SE,129,6.0,8.0,89,0.00,,OVC007,0.00,0.00,VWS V14.01,2013-01-11 04:01:00,
2013-01-10 22:06:00,35.4,32.5,29.84,ESE,115,2.0,8.0,89,0.00,,OVC007,0.00,0.00,VWS V14.01,2013-01-11 04:06:00,
2013-01-10 22:11:00,35.4,32.5,29.83,SE,140,5.0,10.0,89,0.00,,OVC007,0.00,0.00,VWS V14.01,2013-01-11 04:11:00,
2013-01-10 22:16:00,35.4,32.5,29.83,ESE,105,3.0,10.0,89,0.00,,OVC007,0.00,0.00,VWS V14.01,2013-01-11 04:16:00,
2013-01-10 22:21:00,35.5,32.6,29.82,ESE,115,4.0,10.0,89,0.00,,OVC007,0.00,0.00,VWS V14.01,2013-01-11 04:21:00,
2013-01-10 22:26:00,35.5,32.6,29.82,ESE,114,4.0,10.0,89,0.00,,OVC007,0.00,0.00,VWS V14.01,2013-01-11 04:26:00,
2013-01-10 22:31:00,35.6,32.7,29.82,SE,136,4.0,7.0,89,0.00,,OVC007,0.00,0.00,VWS V14.01,2013-01-11 04:31:00,
2013-01-10 22:36:00,35.6,32.7,29.81,SE,131,4.0,10.0,89,0.00,,OVC007,0.00,0.00,VWS V14.01,2013-01-11 04:36:00,
2013-01-10 22:41:00,35.6,32.7,29.81,ESE,114,5.0,10.0,89,0.00,,OVC007,0.00,0.00,VWS V14.01,2013-01-11 04:41:00,
2013-01-10 22:46:00,35.6,32.7,29.80,SE,125,3.0,11.0,89,0.00,,OVC007,0.00,0.00,VWS V14.01,2013-01-11 04:46:00,
2013-01-10 22:51:00,35.6,32.7,29.79,SE,127,6.0,11.0,89,0.00,,OVC007,0.00,0.00,VWS V14.01,2013-01-11 04:51:00,
2013-01-10 22:56:00,35.6,32.7,29.79,ESE,114,4.0,11.0,89,0.00,,OVC007,0.00,0.00,VWS V14.01,2013-01-11 04:56:00,
2013-01-10 23:00:00,35.6,32.7,29.79,East,83,9.0,9.0,89,0.00,,OVC007,0.00,0.00,VWS V14.01,2013-01-11 05:00:00,
2013-01-10 23:01:00,35.6,32.7,29.79,ESE,117,5.0,13.0,89,0.00,,OVC007,0.00,0.00,VWS V14.01,2013-01-11 05:01:00,
2013-01-10 23:02:00,35.6,32.7,29.79,SE,138,7.0,13.0,89,0.00,,OVC007,0.00,0.00,VWS V14.01,2013-01-11 05:02:00,
2013-01-10 23:07:00,35.6,32.7,29.78,SE,128,4.0,13.0,89,0.00,,OVC007,0.00,0.00,VWS V14.01,2013-01-11 05:07:00,
2013-01-10 23:12:00,35.7,32.8,29.78,SE,135,5.0,13.0,89,0.00,,OVC007,0.00,0.00,VWS V14.01,2013-01-11 05:12:00,
2013-01-10 23:18:00,35.7,32.8,29.78,ESE,108,3.0,13.0,89,0.00,,OVC007,0.00,0.00,VWS V14.01,2013-01-11 05:18:00,
2013-01-10 23:23:00,35.7,32.8,29.78,East,101,5.0,13.0,89,0.00,,OVC007,0.00,0.00,VWS V14.01,2013-01-11 05:23:00,
2013-01-10 23:28:00,35.7,32.8,29.78,ESE,111,7.0,13.0,89,0.00,,OVC007,0.00,0.00,VWS V14.01,2013-01-11 05:28:00,
2013-01-10 23:33:00,35.7,32.8,29.78,ESE,106,4.0,8.0,89,0.00,,OVC007,0.00,0.00,VWS V14.01,2013-01-11 05:33:00,
2013-01-10 23:38:00,35.8,32.9,29.77,ESE,122,8.0,10.0,89,0.00,,OVC007,0.00,0.00,VWS V14.01,2013-01-11 05:38:00,
2013-01-10 23:43:00,35.8,32.9,29.78,East,99,6.0,10.0,89,0.00,,OVC007,0.00,0.00,VWS V14.01,2013-01-11 05:43:00,
2013-01-10 23:48:00,35.8,32.9,29.78,SE,127,3.0,10.0,89,0.00,,OVC007,0.00,0.00,VWS V14.01,2013-01-11 05:48:00,
2013-01-10 23:53:00,35.8,32.9,29.78,ESE,117,4.0,10.0,89,0.00,,OVC007,0.00,0.00,VWS V14.01,2013-01-11 05:53:00,
2013-01-10 23:58:00,35.9,33.0,29.79,ESE,107,3.0,10.0,89,0.00,,OVC007,0.00,0.00,VWS V14.01,2013-01-11 05:58:00,